NSS-9

Last updated on Thu Nov 21 2024 00:02:41 GMT+0000 (Coordinated Universal Time)

1 33749U 09008A 24325.58574837 .00000073 00000+0 00000+0 0 9994 2 33749 0.0273 31.1315 0002371 212.8817 210.0185 1.00272721 57771
UTC large
Height (km)
Speed (km/s)
/
Latitude / Longitude
Inclination (degrees)
Orbital Period (minutes)
Azimuth
Elevation
Range (km)
Doppler Factor

Next 0 passes for location: London (51.5072 / 0.1276)

Sorry there are no passes over London.